Regional Weather Roundup
Issued by NWS Green Bay, WI

Home | Current Version | Previous Version | Graphics & Text | Print | Product List | Glossary Off
Versions: 1 2 3 4 5 6 7 8 9 10 11 12 13 14 15 16 17 18 19 20 21 22 23 24 25 26 27 28 29 30 31 32 33 34 35 36 37 38 39 40 41 42 43 44 45 46 47 48 49 50

000
ASUS43 KGRB 190410
RWRGRB

NORTH-CENTRAL AND NORTHEAST WISCONSIN REGIONAL WEATHER ROUNDUP
NATIONAL WEATHER SERVICE GREEN BAY WI
1000 PM CST THU DEC 18 2014

WIZ005-009-010>012-018-019-190500-
NORTH CENTRAL WISCONSIN

CITY           SKY/WX    TMP DP  RH WIND       PRES   REMARKS
IRONWOOD       CLOUDY    14  12  92 CALM      30.22S
MANITOWISH WTR PTCLDY     4   1  89 CALM      30.22S
ARBOR VITAE    PTCLDY    11   8  88 CALM      30.22S
EAGLE RIVER    PTCLDY     6   4  89 CALM      30.22R
LAND O LAKES   PTCLDY     1  -3  85 CALM      30.23R
RHINELANDER    CLEAR      6   4  91 CALM      30.22R
PHILLIPS       CLOUDY    18  16  93 CALM      30.22F
ANTIGO         CLEAR     11  10  95 CALM      30.22S
TOMAHAWK       PTCLDY     6   3  88 CALM      30.24S
MERRILL        PTCLDY    11   9  92 CALM      30.24R
$$

WIZ013-073-190500-
NORTHEAST WISCONSIN

CITY           SKY/WX    TMP DP  RH WIND       PRES   REMARKS
IRON MOUNTAIN  PTCLDY     8   4  83 CALM      30.23S
MARINETTE      CLEAR     19  14  79 N5        30.26R
OCONTO         CLEAR     15  14  98 CALM      30.27S
$$

WIZ017-030-035>037-045-190500-
CENTRAL WISCONSIN

CITY           SKY/WX    TMP DP  RH WIND       PRES   REMARKS
MEDFORD        CLOUDY    20  18  91 CALM      30.22S
WAUSAU         PTCLDY    18  15  88 N3        30.23R
MOSINEE        PTCLDY    19  19 100 N5        30.24S
MARSHFIELD     CLOUDY    24  20  84 CALM      30.24R
WISC RAPIDS    PTCLDY    19  15  84 CALM      30.27R
STEVENS POINT  PTCLDY    13  11  90 CALM      30.26R
WAUPACA        PTCLDY    20  17  88 CALM      30.26S
SHAWANO        CLEAR     19  16  90 CALM      30.26S
CLINTONVILLE   CLEAR     21  18  86 CALM      30.26R
$$

WIZ038-039-048-051-190500-
FOX VALLEY

CITY           SKY/WX    TMP DP  RH WIND       PRES   REMARKS
NWS GREEN BAY  CLEAR     20  17  88 CALM      30.26S
APPLETON       CLEAR     19  16  86 W8        30.25S WCI   9
OSHKOSH        PTCLDY    22  17  81 W5        30.26R
FOND DU LAC    PTCLDY    20  16  84 CALM      30.26R
$$

WIZ022-050-052-190500-
EAST CENTRAL WISCONSIN

CITY           SKY/WX    TMP DP  RH WIND       PRES   REMARKS
STURGEON BAY   CLEAR     18  12  79 CALM      30.27S
MANITOWOC      CLEAR     22  19  89 NW5       30.26S
SHEBOYGAN      CLEAR     20  16  84 NW5       30.25S
$$

LMZ563-521-522-541>543-190500-
LAKESHORE

STATION/POSITION TIME  TEMP    WIND        PRES    VSBY  WAVE
                       AIR SEA DIR/SP/G                  HT/PER
                 (UTC) (F)     (DEG/KT/KT) (MB)    (MI)  (FT/S)
SHEBOYGAN LKSHOR 0400   25 34  310/  6/  8 1025.6F
KEWAUNEE LKSHORE 0400   19     300/  5/  7 1023.6F
ALGOMA MARINA    0300          330/  8/  9   N/A
NORTHPORT PIER   0400   27      20/  7/  9 1024.7S
SISTER BAY LKSHO 0400           CALM  /  4   N/A
CHAMBERS ISLAND  0400   29      20/  9/ 11 1024.7S
MENOMINEE LKSHOR 0400   25     310/  6/ 10 1025.3S
$$



USA.gov is the U.S. government's official web portal to all federal, state and local government web resources and services.